Barrow, AK

3:11 PM AKST on November 21, 2017 (GMT -0900)
Wiley Post-Will Rogers Memorial

Weather History for PABR - July, 2013

Change the Weather History Date:

Thursday, July 18, 2013

  Actual Average Record
Temperature  
Mean Temperature 51 °F 41 °F  
Max Temperature 58 °F 47 °F 65 °F (2007)
Min Temperature 43 °F 35 °F 25 °F (1931)
Degree Days  
Heating Degree Days 14 24  
Month to date heating degree days 366 435  
Since 1 June heating degree days 1144 1316  
Since 1 July heating degree days 366 435  
Cooling Degree Days 0 0  
Month to date cooling degree days 0 0  
Year to date cooling degree days 0 0  
Since 1 June cooling degree days 0 0  
Moisture  
Dew Point 46 °F    
Average Humidity 0    
Maximum Humidity 0    
Minimum Humidity 0    
Precipitation  
Precipitation 0.03 in 0.03 in 0.30 in (1990)
Month to date precipitation 0.67 0.53  
Year to date precipitation 2.66 1.55  
Snow  
Snow 0.00 in 0.00 in 0.10 in (1973)
Month to date snowfall 0.0 0.1  
Since 1 June snowfall 0.3 0.8  
Since 1 July snowfall 0.0 0.1  
Snow Depth 0.00 in    
Sea Level Pressure  
Sea Level Pressure 30.02 in    
Wind  
Wind Speed 8 mph (SW)    
Max Wind Speed 15 mph    
Max Gust Speed 17 mph    
Visibility 5 miles    
Events Fog , Rain    
T = Trace of Precipitation, MM = Missing Value Source: NWS Daily Summary

Daily Weather History Graph

Daily Weather History Graph

Search for Another Location

Airport or City:

Trip Planner

Search our weather history database for the weather conditions in past years. The results will help you decide how hot, cold, wet, or windy it might be!

Date:

Astronomy

Dec. 31, 1969 Rise Set
Actual Time Sun does not rise Sun does not rise
Civil Twilight Sun does not rise Sun does not rise
Nautical Twilight Sun does not rise Sun does not rise
Astronomical Twilight Sun does not rise Sun does not rise
Moon No Moon Rise No Moon Set
Length of Visible Light 24h 00m
Length of Day
24h 00m
Waxing Gibbous, 79% of the Moon is Illuminated
Jul 18
Waxing Gibbous
Jul 22
Full
Jul 29
Last Quarter
Aug 6
New
Aug 14
First Quarter

Hourly Weather History & Observations

Time (AKDT) Temp. Windchill Dew Point Humidity Pressure Visibility Wind Dir Wind Speed Gust Speed Precip Events Conditions
12:53 AM 50.0 °F - 46.0 °F 86% 30.05 in 10.0 mi Calm Calm - 0.00 in Rain Light Rain
1:53 AM 50.0 °F - 46.0 °F 86% 30.05 in 10.0 mi East 4.6 mph - 0.00 in   Overcast
2:09 AM 48.2 °F - 46.4 °F 93% 30.04 in 10.0 mi East 3.5 mph - N/A   Overcast
2:53 AM 50.0 °F - 46.0 °F 86% 30.04 in 10.0 mi East 4.6 mph - N/A   Overcast
3:53 AM 48.9 °F - 46.0 °F 90% 30.04 in 10.0 mi East 4.6 mph - N/A   Overcast
4:53 AM 48.9 °F - 45.0 °F 86% 30.03 in 10.0 mi East 8.1 mph - N/A   Overcast
5:53 AM 50.0 °F - 46.9 °F 89% 30.02 in 4.0 mi East 8.1 mph - 0.01 in Rain Light Rain
6:18 AM 48.2 °F - 46.4 °F 93% 30.02 in 10.0 mi East 8.1 mph - 0.02 in Rain Light Rain
6:29 AM 48.2 °F - 46.4 °F 93% 30.02 in 10.0 mi East 6.9 mph - 0.02 in Rain Light Rain
6:53 AM 50.0 °F - 46.9 °F 89% 30.01 in 10.0 mi East 8.1 mph - 0.02 in   Overcast
7:02 AM 48.2 °F - 46.4 °F 93% 30.01 in 10.0 mi East 9.2 mph - N/A   Overcast
7:23 AM 48.2 °F - 46.4 °F 93% 30.00 in 1.5 mi East 9.2 mph - N/A   Overcast
7:25 AM 48.2 °F - 46.4 °F 93% 30.00 in 0.2 mi East 10.4 mph - N/A Fog Fog
7:53 AM 48.0 °F - 46.0 °F 93% 30.00 in 0.8 mi East 10.4 mph - N/A   Mist
7:59 AM 48.2 °F - 46.4 °F 93% 30.00 in 2.0 mi East 9.2 mph - N/A   Overcast
8:02 AM 48.2 °F - 46.4 °F 93% 30.00 in 5.0 mi East 8.1 mph - N/A   Overcast
8:25 AM 48.2 °F - 46.4 °F 93% 30.00 in 2.0 mi East 4.6 mph - N/A   Overcast
8:39 AM 48.2 °F - 46.4 °F 93% 30.00 in 0.5 mi SE 5.8 mph - N/A Fog Fog
8:51 AM 50.0 °F - 48.2 °F 94% 30.00 in 0.8 mi SSE 8.1 mph - N/A   Mist
8:53 AM 50.0 °F - 48.0 °F 93% 30.00 in 1.0 mi SSE 6.9 mph - N/A   Mist
9:28 AM 51.8 °F - 51.8 °F 100% 29.99 in 0.8 mi SSW 8.1 mph - N/A   Mist
9:38 AM 53.6 °F - 51.8 °F 94% 29.99 in 1.2 mi SSW 9.2 mph - N/A   Overcast
9:44 AM 53.6 °F - 51.8 °F 94% 29.99 in 2.0 mi SSW 9.2 mph - N/A   Overcast
9:53 AM 53.1 °F - 51.1 °F 93% 30.00 in 4.0 mi SW 6.9 mph - N/A   Overcast
10:04 AM 53.6 °F - 51.8 °F 94% 29.99 in 5.0 mi WSW 3.5 mph - 0.00 in   Overcast
10:53 AM 57.0 °F - 53.1 °F 87% 30.00 in 10.0 mi WSW 3.5 mph - 0.00 in   Overcast
11:53 AM 57.0 °F - 53.1 °F 87% 30.00 in 10.0 mi SW 6.9 mph - N/A   Overcast
12:53 PM 57.0 °F - 54.0 °F 89% 30.01 in 10.0 mi WSW 11.5 mph - 0.00 in   Overcast
1:17 PM 53.6 °F - 51.8 °F 94% 30.01 in 0.5 mi WSW 13.8 mph - N/A Fog Fog
1:31 PM 51.8 °F - 48.2 °F 88% 30.01 in 2.0 mi WSW 11.5 mph - N/A   Overcast
1:33 PM 51.8 °F - 48.2 °F 88% 30.01 in 7.0 mi West 9.2 mph - N/A   Overcast
1:53 PM 52.0 °F - 48.9 °F 89% 30.01 in 10.0 mi WSW 10.4 mph - N/A   Overcast
2:53 PM 48.0 °F - 45.0 °F 89% 30.03 in 10.0 mi WSW 10.4 mph - N/A   Overcast
3:23 PM 46.4 °F 41.5 °F 44.6 °F 93% 30.02 in 1.8 mi WSW 10.4 mph - N/A   Overcast
3:25 PM 46.4 °F 41.1 °F 42.8 °F 87% 30.02 in 0.5 mi West 11.5 mph - N/A Fog Fog
3:53 PM 45.0 °F 40.1 °F 43.0 °F 93% 30.03 in 0.5 mi West 9.2 mph - N/A Fog Fog
4:01 PM 44.6 °F 39.7 °F 42.8 °F 93% 30.03 in 0.2 mi West 9.2 mph - N/A Fog Fog
4:14 PM 44.6 °F 39.7 °F 42.8 °F 93% 30.03 in 0.5 mi West 9.2 mph - N/A Fog Fog
4:16 PM 44.6 °F 39.7 °F 42.8 °F 93% 30.03 in 1.0 mi West 9.2 mph - N/A   Overcast
4:25 PM 44.6 °F 40.2 °F 42.8 °F 93% 30.03 in 7.0 mi West 8.1 mph - N/A   Overcast
4:53 PM 46.0 °F 41.4 °F 42.1 °F 86% 30.03 in 7.0 mi West 9.2 mph - N/A   Overcast
5:53 PM 46.0 °F 41.9 °F 42.1 °F 86% 30.04 in 10.0 mi West 8.1 mph - N/A   Mostly Cloudy
6:53 PM 45.0 °F 41.8 °F 42.1 °F 90% 30.04 in 9.0 mi West 5.8 mph - N/A   Mostly Cloudy
7:00 PM 44.6 °F 40.7 °F 42.8 °F 93% 30.04 in 4.0 mi West 6.9 mph - N/A   Overcast
7:53 PM 45.0 °F 40.6 °F 42.1 °F 90% 30.04 in 6.0 mi West 8.1 mph - N/A   Overcast
8:17 PM 44.6 °F 41.4 °F 42.8 °F 93% 30.04 in 10.0 mi West 5.8 mph - N/A   Overcast
8:53 PM 45.0 °F 41.2 °F 42.1 °F 90% 30.04 in 10.0 mi West 6.9 mph - N/A   Overcast
9:53 PM 45.0 °F 41.8 °F 42.1 °F 90% 30.04 in 8.0 mi WSW 5.8 mph - N/A   Mostly Cloudy
10:53 PM 45.0 °F 41.2 °F 43.0 °F 93% 30.05 in 10.0 mi WSW 6.9 mph - N/A   Overcast
11:25 PM 44.6 °F 40.2 °F 42.8 °F 93% 30.05 in 9.0 mi WSW 8.1 mph - N/A   Overcast
11:33 PM 44.6 °F 40.7 °F 41.0 °F 87% 30.05 in 2.5 mi WSW 6.9 mph - N/A   Overcast
11:42 PM 42.8 °F 38.6 °F 41.0 °F 93% 30.06 in 1.0 mi WSW 6.9 mph - N/A   Mist
11:47 PM 42.8 °F 38.6 °F 41.0 °F 93% 30.06 in 0.5 mi WSW 6.9 mph - N/A Fog Fog
11:53 PM 43.0 °F 38.2 °F 41.0 °F 93% 30.06 in 0.5 mi WSW 8.1 mph - N/A Fog Fog